Location: Kansas State University
(39.1938°N, 96.5858°W)
Time: 20:51:10
(UTC-06:00)

Daily predictions for brighter satellites

Satellite Brightness Start Highest point End
(mag) Time Altitude Azimuth Time Altitude Azimuth Time Altitude Azimuth
Cosmos 1378 Rocket 3.6 17:24:06 10° S 17:28:31 75° E 17:32:57 10° N
Cosmos 2227 Rocket 3.7 17:27:09 10° NNE 17:30:09 14° NE 17:33:09 10° E
Cosmos 2219 3.8 17:25:23 10° N 17:30:28 34° ENE 17:35:31 10° ESE
Abrixas rocket 2.6 17:28:06 10° SW 17:31:15 50° SE 17:34:25 10° ENE
Cosmos 1271 Rocket 4.3 17:30:29 10° NE 17:32:45 15° ENE 17:35:02 10° ESE
Cosmos 1484 Rocket 3.1 17:29:16 10° SSE 17:33:05 46° ENE 17:36:57 10° N
ATLAS 3B R/B 3.7 17:28:47 10° NNW 17:33:51 22° NE 17:38:46 10° E
Cosmos 2195 Rocket 4.5 17:28:49 10° N 17:34:57 63° E 17:40:59 10° SSE
AQUARIUS 4.4 17:31:28 10° SE 17:35:46 47° ENE 17:40:05 10° N
IDEFIX/ARIANE 42P 4.1 17:32:18 10° SSW 17:37:10 41° W 17:42:04 10° NNW
Cosmos 1500 3.2 17:33:48 10° N 17:37:33 61° E 17:41:16 10° SSE
Cosmos 2026 Rocket 4.1 17:32:34 10° N 17:38:53 59° E 17:45:06 10° SSE
Cosmos 1656 Rocket 3.9 17:35:03 10° SSW 17:40:36 73° WNW 17:46:07 10° NNE
USA 215 3.6 17:34:13 10° SE 17:40:45 75° SW 17:47:18 10° NW
Meteor 1-18 Rocket 4.2 17:35:35 10° S 17:41:04 69° E 17:46:40 10° NNE
Cosmos 1818 3.7 17:35:43 10° SW 17:41:07 78° WNW 17:46:36 10° NNE
USA 161 3.8 17:43:18 10° NNW 17:45:41 25° WNW 17:48:08 10° SW
Cosmos 389 Rocket 3.5 17:42:52 10° NNE 17:45:49 25° ENE 17:48:43 10° SE
Cosmos 1898 Rocket 3.5 17:44:14 10° SSW 17:49:25 88° WNW 17:54:41 10° NNE
Ariane Rocket 2.9 17:48:33 10° SSE 17:53:36 80° ENE 17:58:40 10° N
CORIOLIS 4.1 17:49:01 10° SSE 17:54:23 67° ENE 17:59:46 10° N
Cosmos 1812 4.4 17:53:50 10° SSW 17:57:25 36° WNW 18:01:02 10° N
Cosmos 2297 Rocket 3.4 17:53:58 10° N 17:58:02 20° NE 18:02:03 10° E
ERS-2 3.3 17:55:31 10° ESE 17:58:25 23° ENE 18:01:20 10° NNE
Cosmos 2298 Rocket 4.0 17:54:10 10° SSW 17:59:28 76° ESE 18:04:47 10° NNE
NOSS 2-3 (C) 4.1 17:55:19 10° SW 17:59:53 69° NW 18:05:13 10° NNE
DELTA 2 R/B (1) 3.9 17:54:48 10° WSW 18:00:16 62° SSE 18:04:55 15° E
Meteor 2-4 Rocket 4.4 17:57:06 10° SSE 18:01:48 29° E 18:06:25 10° NNE
Cosmos 1932 4.5 17:56:25 10° NNW 18:02:44 60° NE 18:08:52 10° SE
Cosmos 1937 Rocket 3.5 18:02:02 10° SSW 18:07:14 85° WNW 18:12:25 10° NNE
Cosmos 1943 Rocket 4.4 18:03:09 10° W 18:07:18 21° NW 18:11:29 10° N
Cosmos 1666 3.0 18:06:40 10° N 18:10:15 41° E 18:13:48 10° SSE
Cosmos 1428 Rocket 4.4 18:05:16 10° N 18:11:29 78° E 18:17:37 10° S
Cosmos 1455 Rocket 3.3 18:09:52 10° N 18:14:09 47° E 18:18:23 10° SSE
Meteor 1-19 Rocket 4.3 18:09:25 10° S 18:14:55 59° E 18:20:33 10° NNE
Hubble Space Telescope 3.0 18:12:19 10° SSW 18:15:02 17° S 18:17:44 10° SE
Cosmos 1544 Rocket 3.6 18:13:26 10° N 18:17:45 56° E 18:22:00 10° SSE
Lacrosse 5 4.4 18:14:01 10° WNW 18:18:04 24° WSW 18:22:05 10° S
Meteor 1-12 Rocket 4.3 18:12:47 10° N 18:18:29 89° W 18:24:14 10° S
YAOGAN 1 2.4 18:14:25 10° SSE 18:18:43 73° ENE 18:23:03 10° N
MOS 1 4.3 18:16:10 10° SSE 18:21:43 57° ENE 18:27:17 10° N
Cosmos 2279 Rocket 4.1 18:16:20 10° S 18:22:35 79° W 18:28:53 10° N
Cosmos 2369 4.4 18:18:06 10° SSE 18:23:06 33° ESE 18:25:45 22° ENE
Aureole 1 Rocket 4.2 18:19:12 10° NNW 18:25:03 85° WSW 18:32:35 10° SSE
Cosmos 1607 4.2 18:18:46 10° NW 18:25:16 75° WSW 18:31:39 10° SSE
Cosmos 2278 4.4 18:20:44 10° SSE 18:25:43 33° ESE 18:28:07 24° ENE
USA 238 DEB 4.0 18:22:37 10° NNW 18:29:26 46° NE 18:36:06 11° ESE
USA 238 4.0 18:22:43 10° NNW 18:29:31 46° NE 18:36:03 11° ESE
Cosmos 1656 4.4 18:24:56 10° SSE 18:29:51 32° ESE 18:31:37 26° ENE
COSMO-SKYMED 1 2.4 18:28:15 10° NNE 18:32:37 80° ESE 18:36:57 10° S
IRS-1A Rocket 4.4 18:27:05 10° S 18:32:42 76° WSW 18:38:17 10° NNW
EO 1 Del DPAF 3.1 18:30:44 20° NNE 18:33:18 67° ESE 18:37:05 10° S
Delta 2 Rocket 4.2 18:28:16 10° WSW 18:33:37 59° S 18:36:19 26° ESE
Cosmos 372 Rocket 4.2 18:36:14 10° S 18:41:11 46° ESE 18:42:59 33° NE
Cosmos 1743 3.3 18:39:09 10° NNW 18:42:59 59° W 18:46:47 10° S
Atlas Centaur 2 3.1 18:42:02 10° WSW 18:45:53 25° S 18:47:40 19° SE
Cosmos 468 4.5 18:43:24 10° N 18:48:40 58° ENE 18:53:52 10° SSE
SPOT 3 Rocket 3.4 18:47:12 10° SSE 18:52:24 85° ENE 18:57:36 10° NNW
SJ 16-02 1.3 18:48:41 10° S 18:52:57 56° ESE 18:53:20 54° E
Cosmos 1697 Rocket 3.3 18:51:06 10° S 18:55:52 36° ESE 18:55:52 36° ESE
DMSP B5D1-3 4.4 18:52:39 19° NNE 18:56:25 80° ESE 19:01:32 10° S
CZ-4 R/B 3.7 18:54:10 10° SSW 18:57:18 24° W 19:00:29 10° NW
FENGYUN 3A 3.6 18:52:18 10° SSE 18:57:42 90° E 19:03:06 10° NNW
Cosmos 2082 3.7 18:53:41 10° NNW 18:59:12 53° ENE 19:00:44 41° ESE
Meteor 1-23 Rocket 4.2 18:54:00 10° S 18:59:44 68° E 19:03:04 26° NNE
ISS -1.6 18:58:02 10° NW 18:59:11 18° NNW 18:59:11 18° NNW
NOSS 3-2 (A) 4.2 18:54:26 10° NNW 19:01:37 46° NE 19:03:56 37° E
ALOS 2.4 18:57:22 10° S 19:02:01 76° WSW 19:06:42 10° NNW
NOSS 3-2 (C) 4.4 18:58:51 10° NNW 19:05:49 39° NE 19:06:37 38° ENE
Meteor 2-11 Rocket 4.4 19:00:31 10° SSE 19:06:29 55° E 19:08:09 43° NE
Abrixas rocket 4.1 19:05:07 10° W 19:07:15 25° NW 19:07:15 25° NW
Thor Agena Rocket 3.8 19:10:15 48° SE 19:10:15 48° SE 19:14:39 10° S
ATLAS 2AS CENTAUR R/B 3.6 19:03:53 10° SW 19:11:29 56° NW 19:17:21 19° NNE
Cosmos 1536 Rocket 4.4 19:07:31 10° SSW 19:11:46 50° W 19:14:37 19° N
Cosmos 2227 Rocket 2.1 19:09:19 10° NNW 19:15:00 89° WSW 19:20:39 10° SSE
Cosmos 158 Rocket 4.1 19:17:56 10° NNW 19:23:01 70° WSW 19:27:57 10° S
Cosmos 2266 Rocket 4.4 19:19:17 10° NNW 19:25:15 58° W 19:31:14 10° S
ATLAS 3B R/B 2.5 19:18:42 10° NW 19:25:22 85° WSW 19:28:37 32° SSE
NOSS 3-4 (A) 3.6 19:26:18 10° SSW 19:31:38 56° SSE 19:31:38 56° SSE
NOSS 3-4 (C) 3.6 19:26:24 10° SSW 19:31:41 55° SSE 19:31:41 55° SSE
Cosmos 1980 Rocket 3.9 19:29:27 10° S 19:31:17 20° SSE 19:31:17 20° SSE
Cosmos 2297 Rocket 2.5 19:36:56 10° NNW 19:42:32 62° WSW 19:44:14 43° SSW
Cosmos 1125 Rocket 4.4 19:37:57 10° SW 19:43:02 45° WNW 19:44:12 39° NNW
DELTA 2 R/B (1) 3.9 19:41:05 10° W 19:45:41 62° W 19:45:41 62° W
Hubble Space Telescope 3.6 19:52:49 10° SW 19:53:38 13° SW 19:53:38 13° SW
Gbstr 26 Del rocket 4.3 19:53:39 10° SW 20:00:59 78° SW 20:00:59 78° SW
CENTAUR R/B 4.2 20:03:22 10° NNW 20:07:15 29° N 20:07:15 29° N
SJ 16-02 4.5 20:29:50 10° W 20:30:23 11° W 20:30:23 11° W
